Location: Cambridge
(43.3830°N, 80.3170°W)
Time: 18:04:33
(UTC-04:00)

Envisat - Pass Details

Date: 25 March 2019
Orbit: 764 x 766 km, 98.2° (Epoch: 23 April)

Event Time Altitude Azimuth Distance (km) Brightness Sun altitude
Rises 21:06:41 0° 206° (SSW) 3,220 6.3 -16.3°
Reaches altitude 10° 21:09:37 10° 224° (SW) 2,299 5.8 -16.8°
Maximum altitude 21:13:11 19° 269° (W) 1,758 5.7 -17.4°
Drops below altitude 10° 21:16:46 10° 314° (NW) 2,310 6.5 -18.1°
Sets 21:19:45 0° 332° (NNW) 3,242 7.0 -18.6°
